DIAMANT R/B, 2682

Orbit data source: Space-Track

DIAMANT R/B, 2682 is space debris in LEO originally from a launch on Wed, 15 Feb 1967 UTC launched from the Hamma Guira Space Track Range (HGSTR). Debris objects in space refer to the collection of defunct objects orbiting the Earth. Examples of debris include non-operational satellites, rocket bodies, and fragments generated from explosions, collisions, or faulty payload assembly.

Loading next visibility...
Identifier
2682, 1967-014B
Orbit
LEO
Country
Flag of FRFR
Related business
Manufacturer
Sud
Mission
Spacecraft
Bus & Motor
RUBIS, Unknown motor
Mass
65 kg wet, 65 kg dry
Launch date (UTC)
1967-02-15 (59 years ago)
Launch vehicle
Unknown
Launch site
Hamma Guira Space Track Range (HGSTR)
Object type
Payload
Rocket body
Debris
Shape & HBR
Cyl, 1.1 m
Radar Cross Section
1.347 m², Large (>1 m²)

Expand to show TLE details & history
Last TLE update: 1 day ago

TLE from 1 day ago
0 DIAMANT R/B
1 02682U 67014B   25260.31109899  .00001075  00000-0  46949-3 0  9999
2 02682  39.4619  28.8340 0746929 209.5551 146.0900 13.32023306827483
Epoch: 2025-09-17T07:27Z
TLE epoch observation values (Epoch: 2025-09-17T07:27:58.952Z)
Latitude
0.00002°
Longitude
-79.65048°
Altitude
1,616.39 km
Speed
6.836 km/s
True Right ascension
01h 55m 20s
True Declination
0° 00' 00"
Sunlit
Object was in full shadow at epoch
Visualization orbit readout
Latitude
Unknown
Longitude
Unknown
Altitude
Unknown
Speed
Unknown
Apparent Right ascension
Unknown
Apparent Declination
Unknown
Sunlit
N/A
Visualization observer readout
Local Sidereal Time
06:40:45
Azimuth
Unknown
Elevation
Unknown
Doppler factor
Unknown
Orbital elements
Apogee altitude
1,703.136 km
Perigee altitude
579.813 km
Semi-major axis
7,519.612 km
Eccentricity
0.07469
Inclination
39.4619°
RAAN
28.834°
Arg. of periapsis
209.5551°
True anomaly
150.51645°
Mean anomaly
146.09°
Eccentric anomaly
148.33648°
Mean motion
3.32851 °/min
Orbital period
108.16 mins
BSTAR
0.00046949
Loading maneuver chart data...
Computing Atmospheric mass density...
Loading historical data...
Loading historical data...
Loading historical data...
Loading historical data...
Loading historical data...
Loading historical data...
Loading historical data...

Documentation

Showing up to 5 results
|